Temperature
17 18 16 15 15 16 17 17 15 12 9 9 8 6 6 5 5 5 5 4 3 3 2 1 0 -0 -1 -1 -1 -1 -1 -2 -2 -3 -3 -2 -3 -3 -4 -4 -3 -2 -2 -2
19 16 15 14 14 16 17 16 14 10 9 9 7 6 6 5 5 4 4 4 3 2 2 1 -0 -1 -2 -3 -3 -3 -3 -3 -4 -5 -4 -4 -4 -4 -4 -5 -5 -4 -4 -5
17 14 14 15 16 16 16 16 15 12 8 8 7 7 6 6 5 4 4 4 3 2 1 0 -1 -2 -3 -4 -4 -4 -3 -4 -5 -5 -5 -5 -5 -5 -5 -5 -6 -6 -6 -6
15 14 14 15 14 15 16 14 13 12 11 11 9 12 7 6 6 5 5 4 3 2 1 -0 -2 -3 -4 -5 -5 -5 -5 -5 -6 -6 -7 -7 -7 -7 -7 -7 -7 -6 -6 -6
14 14 14 14 13 13 14 11 12 12 13 12 10 11 10 6 6 6 5 4 3 2 1 -1 -2 -4 -5 -6 -6 -6 -6 -6 -6 -7 -8 -8 -8 -8 -8 -8 -8 -7 -7 -7
14 12 12 12 12 12 12 12 12 12 13 14 13 12 11 7 6 5 5 4 3 2 0 -2 -3 -4 -5 -6 -7 -7 -7 -7 -7 -7 -8 -9 -9 -9 -9 -9 -9 -9 -8 -7
14 14 12 12 14 14 14 15 17 16 16 15 11 11 9 6 5 4 4 3 2 1 -1 -2 -4 -5 -6 -7 -8 -8 -8 -8 -8 -8 -9 -9 -9 -10 -10 -10 -10 -9 -9 -9
16 15 12 12 12 12 12 14 15 15 16 15 12 11 7 6 4 4 3 3 2 0 -2 -3 -4 -6 -7 -8 -8 -8 -9 -9 -10 -10 -10 -10 -10 -11 -11 -11 -11 -10 -10 -10
15 14 12 10 10 11 13 12 11 12 13 12 13 9 5 5 4 4 3 2 1 -1 -3 -4 -5 -6 -7 -8 -8 -9 -10 -10 -11 -11 -11 -11 -11 -11 -11 -11 -11 -11 -11 -10
12 13 12 11 11 10 11 11 12 13 13 13 14 12 10 5 5 4 3 2 0 -1 -3 -4 -5 -6 -8 -8 -9 -9 -10 -11 -11 -11 -12 -12 -12 -12 -12 -12 -12 -12 -11 -11
11 13 13 12 11 11 11 11 11 11 11 12 12 12 6 4 4 3 3 1 -1 -2 -4 -5 -6 -7 -8 -9 -9 -9 -10 -10 -11 -12 -12 -12 -12 -12 -13 -13 -13 -12 -12 -12
9 12 13 11 9 8 10 10 10 11 11 10 10 10 5 4 3 3 2 1 -1 -3 -4 -5 -6 -7 -8 -9 -10 -10 -10 -10 -11 -11 -12 -12 -12 -13 -13 -13 -13 -13 -13 -12
9 11 15 14 11 9 9 8 8 9 9 9 9 10 4 5 4 3 2 -0 -2 -3 -4 -6 -7 -8 -9 -9 -10 -10 -10 -10 -11 -11 -12 -12 -13 -13 -13 -13 -13 -13 -13 -13
8 11 13 15 13 10 9 8 7 8 9 9 9 9 7 6 4 3 1 -1 -2 -4 -5 -6 -7 -8 -9 -10 -10 -10 -11 -11 -11 -12 -12 -12 -13 -13 -14 -13 -14 -13 -13 -13
8 10 10 9 7 7 8 8 7 7 8 8 9 7 6 5 3 2 0 -2 -3 -4 -6 -7 -8 -9 -9 -10 -10 -10 -11 -11 -12 -12 -12 -12 -13 -13 -13 -14 -14 -14 -14 -13
8 9 8 9 6 6 6 7 7 6 6 6 6 6 5 3 2 2 -0 -3 -4 -5 -6 -7 -8 -9 -10 -10 -10 -10 -11 -11 -12 -12 -12 -13 -13 -13 -13 -14 -14 -14 -14 -14
7 9 10 11 7 7 9 8 7 6 6 6 6 6 4 3 2 1 -2 -4 -5 -6 -7 -8 -9 -10 -10 -9 -9 -10 -11 -11 -12 -12 -12 -13 -13 -13 -14 -14 -14 -14 -14 -14
7 8 9 9 9 9 10 5 6 6 6 5 5 4 3 2 0 -2 -4 -5 -6 -7 -8 -8 -9 -9 -9 -9 -10 -10 -10 -11 -12 -12 -12 -13 -13 -14 -14 -14 -15 -15 -15 -14
5 8 8 7 9 11 7 5 4 5 6 5 4 4 3 1 -0 -1 -5 -6 -7 -8 -8 -8 -8 -8 -9 -9 -10 -10 -11 -11 -12 -12 -13 -13 -14 -14 -15 -15 -14 -14 -15 -14
4 6 7 5 8 11 9 5 3 4 5 4 3 3 2 -0 1 -0 -5 -7 -7 -7 -7 -7 -8 -8 -9 -9 -10 -10 -11 -11 -12 -12 -12 -13 -14 -15 -15 -15 -15 -15 -15 -14
6 6 6 6 7 10 6 3 3 5 7 3 2 1 -0 -1 -2 -5 -6 -6 -7 -7 -7 -7 -7 -8 -9 -9 -10 -10 -11 -11 -11 -12 -12 -13 -14 -14 -15 -15 -15 -15 -15 -14
8 8 7 6 7 8 3 2 5 6 3 2 1 -0 -1 -3 -5 -5 -6 -6 -6 -7 -7 -7 -7 -8 -9 -10 -10 -10 -11 -11 -11 -11 -12 -12 -13 -14 -15 -15 -15 -15 -15 -14
7 9 9 8 10 5 3 4 3 3 2 1 -0 -1 -2 -4 -5 -5 -6 -6 -6 -7 -7 -7 -7 -8 -9 -10 -10 -10 -11 -11 -11 -11 -12 -12 -12 -13 -14 -14 -14 -14 -14 -14
6 4 6 6 7 4 2 2 2 2 1 1 -0 -1 -3 -4 -5 -5 -6 -6 -6 -6 -7 -7 -8 -8 -9 -9 -10 -10 -10 -11 -11 -12 -12 -12 -13 -14 -14 -14 -14 -14 -14 -14
8 4 5 6 5 2 1 1 2 2 1 0 -1 -2 -3 -4 -5 -5 -6 -6 -6 -6 -7 -7 -8 -8 -9 -9 -10 -10 -10 -10 -11 -12 -12 -12 -13 -14 -14 -14 -14 -14 -14 -14
5 5 6 8 6 4 3 2 2 2 1 -0 -1 -3 -4 -4 -5 -5 -6 -6 -6 -6 -7 -7 -8 -8 -9 -9 -9 -9 -10 -10 -11 -12 -12 -13 -14 -13 -13 -14 -14 -14 -14 -14
Wind_Speed
7 9 9 8 5 3 5 5 4 3 4 5 11 14 8 5 7 9 11 12 14 15 16 16 17 19 21 20 21 23 22 21 18 15 16 16 16 14 13 17 22 23 23 22
7 11 8 5 4 6 6 4 4 5 6 5 11 9 7 5 6 7 9 11 13 16 18 17 17 17 20 19 20 21 21 21 19 15 15 15 16 14 15 17 19 22 24 23
11 6 5 6 7 4 3 1 3 6 6 6 8 8 8 5 2 4 6 9 13 15 17 17 17 18 20 19 19 19 21 21 20 21 17 16 14 14 14 16 15 21 24 23
9 6 4 5 6 4 2 3 5 9 9 5 9 4 10 7 1 4 8 11 14 15 16 18 17 18 19 19 17 19 20 20 20 21 17 19 15 15 17 16 15 21 22 23
5 5 7 6 5 6 6 4 2 8 6 2 7 6 5 6 3 6 11 13 15 15 17 18 16 16 17 18 17 17 19 19 20 20 19 18 17 16 15 17 19 19 19 22
5 3 4 5 4 3 4 2 3 4 4 4 3 6 2 4 1 7 11 14 16 16 16 16 14 15 15 17 16 17 19 19 19 19 19 19 20 20 20 20 19 18 16 17
3 4 4 5 4 3 7 5 3 2 3 2 2 5 1 6 3 7 12 15 16 15 15 15 15 16 17 18 17 17 19 19 20 20 20 20 20 20 20 19 19 19 17 17
1 3 6 7 7 6 7 7 6 6 7 5 2 3 4 4 4 7 11 14 15 15 14 14 15 15 16 17 17 17 18 19 19 19 20 19 19 16 15 19 18 18 16 17
2 2 3 5 6 4 3 4 3 4 5 7 4 2 5 3 3 9 13 15 16 15 14 14 14 14 16 17 17 18 18 19 18 19 19 19 18 18 18 19 18 16 17 19
2 1 2 2 1 6 4 1 3 5 8 8 8 5 3 3 7 12 15 16 16 14 12 15 14 14 15 16 17 17 18 18 18 18 17 16 18 17 18 17 19 20 20 22
1 1 1 1 3 2 1 1 2 2 4 6 9 5 6 3 7 12 15 16 16 14 13 15 14 14 15 16 16 17 18 18 17 17 17 18 17 17 18 17 19 19 20 21
2 2 2 1 3 0 0 1 1 5 5 5 7 3 9 5 7 11 15 17 15 13 14 15 14 15 15 16 16 16 17 17 17 17 17 17 17 17 18 18 19 21 20 21
1 2 3 2 3 3 2 2 2 2 4 5 5 5 8 5 10 14 16 16 13 13 14 14 14 14 15 16 15 16 16 16 16 17 17 17 17 18 19 19 19 20 20 20
2 2 3 6 4 0 4 5 6 5 5 6 9 13 7 13 13 16 16 14 13 13 15 14 14 14 15 15 15 16 16 16 16 16 17 17 18 18 19 19 19 20 19 20
1 3 3 5 3 4 6 8 9 11 9 8 10 11 15 10 13 15 15 13 13 15 15 14 15 15 16 16 16 15 16 16 16 16 16 17 17 18 18 18 19 19 19 19
1 1 2 3 2 4 8 11 11 11 11 12 13 12 4 8 12 15 14 11 13 15 14 14 15 16 16 17 16 16 16 16 16 16 16 16 17 18 18 18 18 19 19 19
2 1 3 3 3 7 9 8 11 7 8 8 9 7 7 11 13 15 10 8 13 14 14 14 15 15 16 16 16 16 16 16 16 16 16 16 17 18 18 18 18 18 18 18
3 2 2 4 5 6 1 3 5 7 8 9 10 9 7 10 12 7 3 8 12 12 13 13 13 14 15 15 15 15 15 16 16 16 16 17 17 18 18 18 18 17 16 16
0 2 2 2 4 9 2 5 5 5 6 6 7 6 7 8 12 3 1 6 9 10 11 11 12 13 14 14 15 15 15 15 16 16 17 18 18 18 18 18 18 16 16 16
3 1 3 2 4 6 1 7 6 2 5 6 7 6 7 7 9 5 3 6 8 9 10 11 12 13 13 14 15 15 16 16 16 17 18 19 18 18 18 18 18 16 16 16
4 4 5 6 7 8 5 9 8 3 2 7 6 4 3 4 4 4 4 6 8 9 10 11 12 12 12 13 14 15 16 16 17 18 18 19 18 18 17 16 16 16 15 15
7 6 6 5 6 6 11 10 8 2 6 6 4 3 2 2 1 3 4 6 8 10 11 12 12 13 13 13 14 15 16 16 17 18 18 18 18 16 14 16 15 15 14 13
8 8 4 9 5 3 12 7 4 6 5 5 4 4 3 2 0 2 4 6 8 9 10 10 12 14 13 13 13 15 16 17 18 18 18 17 17 16 15 15 15 14 13 11
6 5 6 8 8 7 11 7 7 6 5 6 7 7 5 4 2 1 4 6 7 9 9 10 12 13 14 14 14 14 15 16 17 17 17 16 15 16 16 13 12 12 12 12
6 9 7 8 4 5 10 11 10 8 9 10 8 7 6 5 3 1 3 5 7 8 9 10 11 13 14 15 15 15 15 16 17 17 16 16 14 15 15 14 12 13 11 12
9 10 9 6 7 8 8 12 12 12 10 10 10 8 6 5 4 0 3 5 6 8 9 10 12 13 14 14 15 15 16 16 17 15 16 13 13 14 13 13 13 15 15 17
Wind_Direction
42 61 49 23 5 52 95 113 125 112 108 105 130 135 129 105 69 51 38 26 17 11 7 6 2 1 358 357 357 354 350 348 350 351 350 346 342 341 341 344 341 341 340 339
82 54 28 23 71 122 117 125 139 129 128 127 147 148 141 110 69 46 28 17 8 2 0 358 356 358 357 355 355 352 351 347 348 350 348 343 336 337 340 340 339 338 336 336
82 42 13 51 77 127 156 285 255 177 137 143 158 179 183 158 112 49 25 9 4 1 354 352 354 357 355 352 352 351 350 347 348 351 347 343 340 339 342 341 339 336 331 331
74 47 48 65 51 351 240 324 278 185 179 184 206 254 180 185 183 16 9 2 355 353 353 353 353 353 352 349 347 348 348 347 348 349 348 346 342 340 337 336 333 333 331 331
82 37 34 34 4 345 336 341 242 192 208 193 208 263 153 185 259 351 358 352 348 350 351 350 349 348 347 347 345 348 348 348 349 348 347 344 341 338 334 335 334 335 334 333
84 58 27 352 315 330 316 193 127 155 208 259 205 236 172 169 341 350 349 345 348 351 346 344 343 345 347 348 346 349 349 350 350 349 347 344 340 339 337 338 337 336 333 332
97 62 25 356 336 8 0 322 295 278 255 287 136 238 139 131 45 358 345 345 348 348 342 343 344 347 347 347 347 349 350 348 348 347 346 342 340 338 336 337 335 334 331 329
116 82 26 22 18 355 15 3 4 320 312 305 231 260 145 133 36 354 347 347 349 345 343 344 345 346 345 346 346 347 346 345 344 344 343 340 340 337 334 334 331 329 327 325
39 94 55 41 33 1 15 37 349 290 281 278 259 165 166 169 348 344 346 351 350 344 344 344 344 345 346 346 347 345 343 341 341 341 340 339 339 337 334 332 330 329 326 324
11 130 49 353 166 59 53 33 303 327 330 311 302 274 223 179 342 348 350 350 348 346 347 346 345 346 346 346 345 345 343 340 338 339 339 337 337 337 334 332 331 330 327 326
357 279 156 104 50 31 79 76 23 321 293 299 312 335 102 61 357 347 347 352 349 348 347 346 346 347 346 346 345 344 343 341 341 340 339 338 338 338 336 334 332 330 328 327
36 295 261 112 89 151 137 130 291 307 301 261 283 295 121 50 356 347 348 351 349 347 344 345 346 346 345 345 344 343 341 340 340 339 338 339 339 339 339 337 334 332 331 330
167 271 297 190 171 161 161 167 210 259 273 255 269 309 130 354 345 350 350 346 343 341 342 345 347 345 344 342 340 339 339 338 338 339 339 340 341 341 340 338 336 335 335 334
153 253 277 307 327 162 222 215 204 220 252 267 257 294 310 338 341 343 345 343 340 341 343 345 344 342 341 338 337 337 337 337 337 337 339 340 340 339 338 337 336 337 337 337
220 258 260 273 268 257 258 247 224 226 246 265 290 301 318 337 336 336 339 341 339 339 344 345 341 339 338 337 336 335 334 334 335 335 337 337 336 335 335 335 337 338 338 338
83 240 274 265 213 270 266 250 237 238 245 254 276 292 343 328 327 332 340 340 335 338 341 341 339 336 336 335 333 332 329 331 330 331 331 331 333 333 333 332 336 338 337 338
138 225 287 279 289 295 270 237 207 210 220 240 271 302 324 320 331 333 337 338 334 336 338 338 336 333 331 329 327 325 326 325 326 327 326 326 328 330 330 330 333 336 335 336
156 181 262 295 307 272 104 58 188 218 241 237 258 283 299 318 322 324 349 336 333 334 333 332 331 327 324 323 322 321 322 322 323 322 322 324 325 324 324 327 328 332 334 332
273 211 232 266 280 273 190 184 179 214 266 226 237 260 296 320 304 254 94 335 330 330 328 327 326 323 322 323 324 322 322 324 324 322 322 322 322 321 322 323 322 329 332 330
83 190 222 213 261 271 125 145 149 179 265 192 211 259 300 316 319 360 13 333 332 330 330 328 325 324 325 327 326 323 324 327 328 327 322 320 321 323 323 322 323 326 327 329
184 191 213 226 246 272 123 142 153 210 352 156 205 251 278 294 316 346 342 341 336 331 332 331 328 328 329 328 326 324 326 329 328 324 321 321 324 327 325 324 325 323 324 326
197 193 211 205 233 264 143 158 194 220 119 167 189 187 206 275 322 335 344 341 335 333 335 335 330 327 328 330 329 325 328 329 326 323 323 326 328 328 326 327 327 326 326 326
217 212 217 210 235 88 170 187 183 140 159 171 164 146 145 165 163 351 342 334 331 331 333 334 328 324 329 335 332 326 327 328 326 325 328 329 328 328 330 331 331 331 330 327
223 207 229 252 254 206 190 180 164 158 147 135 129 133 142 148 127 10 338 331 329 330 334 334 329 328 332 335 333 329 328 330 327 328 330 330 330 331 334 336 336 333 331 328
225 186 219 247 232 176 193 191 169 135 128 127 121 130 141 142 126 45 324 325 327 329 335 333 331 328 330 332 332 333 335 334 332 331 332 332 332 332 336 339 339 339 342 346
201 195 199 227 192 181 183 173 155 144 146 142 139 140 137 132 130 50 313 320 326 333 334 331 331 330 330 331 331 335 338 337 335 335 336 334 334 338 342 343 344 350 352 354
Height
1579 1580 1587 1591 1591 1588 1586 1587 1593 1605 1614 1615 1619 1624 1629 1631 1629 1628 1627 1625 1622 1620 1617 1612 1607 1601 1595 1588 1582 1576 1569 1563 1556 1548 1542 1535 1530 1525 1521 1518 1514 1510 1505 1500
1581 1589 1595 1594 1592 1590 1588 1590 1596 1608 1614 1614 1620 1624 1628 1629 1629 1628 1626 1624 1622 1620 1616 1612 1607 1601 1595 1588 1582 1575 1568 1562 1555 1549 1542 1536 1530 1525 1520 1515 1510 1506 1502 1498
1588 1599 1598 1596 1592 1591 1590 1590 1592 1601 1614 1616 1618 1622 1626 1627 1627 1627 1626 1625 1623 1620 1615 1611 1605 1600 1593 1587 1580 1573 1566 1560 1554 1547 1540 1533 1528 1523 1517 1512 1507 1502 1499 1495
1595 1600 1599 1597 1597 1595 1591 1596 1596 1599 1604 1604 1612 1594 1615 1623 1625 1626 1625 1623 1621 1618 1614 1610 1604 1598 1592 1586 1579 1572 1564 1558 1552 1545 1538 1532 1527 1522 1517 1512 1506 1500 1495 1491
1601 1603 1601 1599 1601 1600 1597 1599 1597 1597 1596 1598 1605 1601 1606 1623 1622 1623 1623 1621 1619 1616 1613 1608 1602 1596 1591 1584 1578 1570 1563 1556 1550 1544 1538 1532 1527 1521 1516 1510 1504 1497 1491 1486
1603 1606 1606 1605 1604 1603 1602 1599 1599 1598 1595 1590 1591 1596 1594 1614 1619 1620 1620 1619 1617 1615 1611 1606 1601 1596 1590 1583 1576 1569 1561 1555 1549 1542 1537 1531 1526 1519 1513 1507 1500 1493 1488 1482
1603 1606 1608 1608 1602 1600 1599 1592 1583 1580 1581 1579 1596 1593 1601 1617 1621 1622 1621 1619 1616 1614 1609 1604 1600 1595 1589 1582 1575 1567 1560 1553 1547 1541 1535 1529 1524 1518 1512 1505 1498 1491 1485 1479
1599 1603 1610 1610 1610 1608 1607 1601 1599 1594 1583 1578 1592 1591 1610 1620 1623 1623 1621 1619 1615 1612 1607 1603 1599 1593 1587 1580 1573 1565 1558 1551 1545 1538 1532 1527 1522 1516 1509 1503 1497 1490 1484 1477
1601 1607 1614 1614 1614 1612 1608 1609 1611 1605 1598 1598 1584 1602 1617 1621 1621 1621 1619 1617 1614 1610 1606 1602 1597 1591 1585 1578 1570 1564 1556 1549 1543 1536 1530 1524 1519 1513 1506 1500 1494 1488 1481 1475
1611 1609 1613 1615 1615 1617 1615 1615 1609 1604 1600 1588 1577 1587 1596 1616 1619 1619 1617 1615 1612 1608 1604 1600 1595 1589 1583 1576 1569 1562 1555 1548 1541 1535 1528 1522 1516 1510 1504 1497 1491 1485 1478 1472
1616 1610 1611 1613 1613 1615 1615 1616 1614 1612 1609 1601 1588 1585 1610 1617 1619 1619 1616 1613 1610 1606 1602 1597 1592 1587 1581 1574 1567 1560 1553 1546 1539 1533 1526 1520 1513 1507 1501 1495 1488 1482 1475 1469
1618 1613 1606 1613 1620 1621 1617 1616 1615 1611 1605 1610 1604 1601 1615 1617 1618 1617 1614 1611 1609 1605 1601 1595 1590 1584 1578 1571 1564 1557 1550 1543 1537 1531 1524 1518 1512 1505 1499 1492 1485 1479 1472 1466
1618 1614 1601 1601 1614 1619 1618 1619 1619 1620 1617 1611 1607 1598 1615 1614 1615 1614 1612 1610 1607 1603 1598 1593 1587 1581 1574 1568 1561 1554 1547 1541 1535 1529 1523 1516 1510 1503 1497 1490 1483 1477 1470 1463
1619 1615 1609 1604 1604 1612 1615 1618 1621 1620 1613 1605 1603 1599 1607 1609 1612 1612 1611 1609 1606 1601 1596 1591 1585 1578 1572 1565 1558 1551 1545 1539 1533 1527 1521 1515 1508 1502 1495 1488 1482 1475 1469 1462
1619 1614 1614 1615 1619 1619 1615 1614 1617 1617 1612 1609 1600 1605 1606 1611 1613 1612 1609 1606 1603 1599 1594 1588 1582 1576 1570 1563 1556 1550 1543 1537 1531 1525 1519 1513 1506 1500 1493 1487 1481 1474 1468 1461
1619 1616 1617 1613 1620 1620 1616 1611 1612 1613 1613 1611 1608 1607 1610 1612 1612 1609 1607 1604 1601 1597 1591 1586 1580 1574 1568 1561 1554 1548 1541 1535 1529 1523 1517 1511 1504 1498 1491 1485 1479 1473 1466 1460
1619 1616 1612 1606 1615 1614 1600 1599 1605 1608 1609 1609 1606 1607 1610 1610 1609 1608 1605 1603 1599 1594 1589 1584 1578 1573 1566 1560 1553 1546 1539 1533 1527 1521 1515 1509 1502 1496 1490 1484 1478 1472 1465 1459
1619 1617 1615 1611 1607 1605 1595 1606 1605 1606 1606 1608 1608 1609 1609 1609 1608 1606 1603 1601 1597 1593 1587 1581 1576 1570 1564 1558 1551 1545 1538 1532 1525 1519 1513 1506 1500 1493 1488 1482 1477 1471 1465 1458
1621 1619 1616 1616 1605 1591 1599 1604 1605 1605 1602 1606 1607 1607 1607 1606 1604 1602 1601 1598 1595 1591 1585 1580 1574 1568 1562 1556 1550 1543 1537 1530 1524 1518 1511 1505 1498 1491 1485 1480 1475 1470 1464 1458
1623 1622 1618 1620 1608 1589 1589 1602 1604 1607 1601 1603 1604 1604 1605 1605 1600 1601 1599 1596 1593 1589 1583 1578 1573 1567 1561 1555 1549 1542 1535 1529 1523 1516 1510 1503 1496 1490 1483 1478 1473 1468 1463 1458
1617 1617 1616 1615 1607 1584 1596 1601 1605 1601 1594 1601 1602 1603 1603 1604 1603 1601 1597 1594 1591 1587 1582 1577 1572 1566 1560 1554 1547 1541 1535 1529 1522 1515 1508 1500 1494 1488 1482 1476 1471 1466 1461 1457
1603 1606 1606 1608 1604 1591 1596 1599 1598 1594 1596 1598 1600 1601 1601 1601 1599 1597 1595 1593 1590 1586 1581 1576 1571 1565 1559 1552 1546 1540 1534 1528 1521 1513 1506 1499 1493 1486 1480 1475 1470 1465 1460 1456
1599 1595 1592 1593 1587 1587 1590 1590 1591 1592 1594 1596 1598 1598 1597 1597 1596 1595 1593 1591 1588 1584 1580 1575 1570 1565 1558 1552 1546 1539 1533 1526 1519 1512 1505 1498 1492 1486 1480 1475 1469 1464 1460 1456
1595 1595 1593 1588 1582 1585 1586 1587 1588 1590 1593 1594 1595 1595 1594 1594 1594 1593 1592 1589 1586 1583 1578 1574 1569 1563 1558 1552 1546 1540 1533 1525 1518 1510 1503 1497 1491 1485 1480 1475 1470 1464 1459 1455
1585 1589 1587 1582 1581 1582 1583 1584 1586 1589 1591 1593 1593 1593 1593 1592 1592 1592 1590 1588 1585 1582 1578 1573 1567 1562 1557 1551 1545 1539 1532 1524 1516 1509 1503 1496 1490 1486 1480 1475 1470 1465 1460 1456
1577 1576 1575 1570 1571 1574 1577 1580 1584 1587 1589 1591 1591 1590 1590 1591 1591 1590 1588 1587 1584 1581 1577 1572 1567 1562 1556 1550 1545 1539 1532 1525 1516 1508 1502 1496 1491 1486 1480 1475 1470 1466 1461 1456